Stations météo

réclame
Mon MeteoGroup
Calvi, France (7754): Température de l'air & dewpoint: 16.10.2018 16:00:00 - 22.10.2018 16:00:00 (CEST)Calvi, France (7754): Température de l'air 5cm: 16.10.2018 16:00:00 - 22.10.2018 16:00:00 (CEST)Calvi, France (7754): Vitesse du vent & gusts: 16.10.2018 16:00:00 - 22.10.2018 16:00:00 (CEST)Calvi, France (7754): Direction du vent: 16.10.2018 16:00:00 - 22.10.2018 16:00:00 (CEST)Calvi, France (7754): reduced air pressure: 16.10.2018 16:00:00 - 22.10.2018 16:00:00 (CEST)Calvi, France (7754): visibility: 16.10.2018 16:00:00 - 22.10.2018 16:00:00 (CEST)Calvi, France (7754): Quantités de précipitations: 16.10.2018 16:00:00 - 22.10.2018 16:00:00 (CEST)
Date & Time tt [°C] td [°C] tt 5cm [°C] ff [km/h] ff [knt] fx [km/h] fx [knt] dd ppp [hPa] vv [km] rr [mm]
22.10.2018 16:00:00 18,4 7,8 20,6 26 14 43 23 N 1017,2 60 0,0
22.10.2018 15:00:00 18,3 7,4 19,7 28 15 45 25 N 1017,5 54 0,0
22.10.2018 14:00:00 18,7 6,5 19,4 28 15 45 24 N 1017,6 51 0,0
22.10.2018 13:00:00 18,4 4,9 19,9 31 17 50 27 NNE 1018,2 54 0,0
22.10.2018 12:00:00 18,0 3,8 19,8 29 16 50 27 NNE 1018,6 57 0,0
22.10.2018 11:00:00 17,7 3,2 17,0 23 12 51 28 NNE 1018,5 60 0,0
22.10.2018 10:00:00 17,2 1,6 16,1 26 14 58 31 NE 1018,7 60 0,0
22.10.2018 09:00:00 16,8 0,0 14,7 28 15 65 35 NE 1017,7 44 0,0
22.10.2018 08:00:00 16,5 -1,2 15,1 31 17 61 33 NE 1016,7 60 0,0
22.10.2018 07:00:00 16,5 -1,2 15,0 28 15 50 27 NNE 1016,3 60 0,0
22.10.2018 06:00:00 16,9 -2,2 15,3 25 14 47 25 ENE 1016,6 60 0,0
22.10.2018 05:00:00 17,7 -3,2 16,0 21 12 48 26 NE 1016,2 60 0,0
22.10.2018 04:00:00 18,4 0,0 16,2 28 15 46 25 ENE 1016,2 60 0,0
22.10.2018 03:00:00 18,5 3,5 15,7 24 13 43 23 NE 1016,8 60 0,0
22.10.2018 02:00:00 16,7 8,1 14,4 24 13 37 20 NNE 1016,7 59 0,0
22.10.2018 01:00:00 17,3 12,4 15,2 12 7 26 14 NNE 1016,4 20 0,0
22.10.2018 00:00:00 16,6 14,6 15,0 9 5 22 12 SSE 1016,3 13 0,0
21.10.2018 23:00:00 16,3 14,3 15,8 6 3 13 7 S 1017,0 12 0,0
21.10.2018 22:00:00 16,1 14,5 14,9 7 4 11 6 S 1016,8 13 0,0
21.10.2018 21:00:00 15,6 13,6 14,9 9 5 13 7 SSW 1016,0 13 0,0
21.10.2018 20:00:00 16,9 15,1 15,8 6 4 10 5 SSW 1015,6 9 0,0
21.10.2018 19:00:00 18,6 16,0 16,8 2 1 7 4 NW 1014,7 10 0,0
21.10.2018 18:00:00 21,4 17,0 21,0 4 2 14 7 ENE 1014,4 15 0,0
21.10.2018 17:00:00 22,6 17,3 25,5 10 5 23 12 E 1015,1 19 0,0
21.10.2018 16:00:00 23,4 16,7 27,1 10 6 18 10 N 1015,5 19 0,0
21.10.2018 15:00:00 23,5 17,5 24,6 9 5 17 9 NE 1016,0 20 0,0
21.10.2018 14:00:00 22,7 17,8 24,1 12 7 31 17 NNE 1016,8 11 0,0
21.10.2018 13:00:00 22,8 17,7 24,8 17 9 29 15 N 1017,8 17 0,2
21.10.2018 12:00:00 23,0 15,1 26,5 4 2 10 5 N 1018,6 17 0,0
21.10.2018 11:00:00 21,7 16,2 20,3 8 4 11 6 N 1019,2 19 0,0
21.10.2018 10:00:00 19,3 15,0 16,0 4 2 5 3 S 1019,4 31 0,0
21.10.2018 09:00:00 15,3 13,5 12,8 6 3 11 6 SSW 1019,7 14 0,0
21.10.2018 08:00:00 13,6 12,0 12,6 8 4 12 6 SSW 1019,2 13 0,0
21.10.2018 07:00:00 14,0 12,6 12,9 8 5 16 8 SSW 1019,5 11 0,0
21.10.2018 06:00:00 14,0 12,9 12,7 9 5 15 8 S 1020,2 10 0,0
21.10.2018 05:00:00 13,4 12,0 12,8 6 3 15 8 S 1020,4 10 0,0
21.10.2018 04:00:00 13,8 12,7 13,0 7 4 9 5 S 1020,5 8 0,0
21.10.2018 03:00:00 14,8 13,7 14,1 4 2 12 6 S 1020,6 9 0,0
21.10.2018 02:00:00 14,9 13,6 14,3 4 2 12 6 S 1021,0 7 0,2
21.10.2018 01:00:00 15,5 14,4 14,9 8 4 13 7 S 1021,4 9 0,0
21.10.2018 00:00:00 16,6 15,5 15,6 8 5 16 9 SSW 1021,6 9 0,0
20.10.2018 23:00:00 16,0 14,9 15,1 7 4 11 6 S 1022,1 8 0,0
20.10.2018 22:00:00 16,1 14,8 15,3 5 3 13 7 SE 1021,6 8 0,0
20.10.2018 21:00:00 17,1 15,3 16,1 7 4 12 7 S 1021,2 10 0,0
20.10.2018 20:00:00 18,0 15,4 17,1 3 2 10 6 SSW 1021,3 8 0,0
20.10.2018 19:00:00 19,4 15,5 18,3 6 4 11 6 SSW 1020,7 6 0,0
20.10.2018 18:00:00 21,4 17,0 21,7 5 3 17 9 WNW 1020,4 15 0,0
20.10.2018 17:00:00 22,5 17,8 22,9 8 4 23 12 NW 1020,5 18 0,0
20.10.2018 16:00:00 22,2 17,8 23,3 10 6 22 12 NNW 1020,4 20 0,0
20.10.2018 15:00:00 22,4 17,5 23,6 7 4 19 11 NNW 1020,8 20 0,0
20.10.2018 14:00:00 22,8 18,1 24,8 11 6 18 10 NNW 1021,2 20 0,0
20.10.2018 13:00:00 22,7 18,5 25,8 10 5 17 9 NNW 1022,0 20 0,0
20.10.2018 12:00:00 22,9 18,2 26,4 10 5 16 9 N 1022,2 19 0,0
20.10.2018 11:00:00 22,3 16,8 21,9 9 5 14 7 N 1021,8 20 0,0
20.10.2018 10:00:00 20,6 15,6 17,1 2 1 8 4 S 1021,0 9 0,0
20.10.2018 09:00:00 16,6 14,6 14,1 7 4 11 6 S 1020,7 14 0,0
20.10.2018 08:00:00 14,7 12,9 13,8 9 5 14 7 S 1019,9 16 0,0
20.10.2018 07:00:00 14,4 12,9 13,6 10 5 12 7 SSE 1019,8 23 0,0
20.10.2018 06:00:00 14,7 12,9 14,2 6 3 13 7 S 1019,5 18 0,0
20.10.2018 05:00:00 14,8 13,2 14,1 4 2 14 7 S 1019,4 20 0,0
20.10.2018 04:00:00 14,8 13,3 13,9 7 4 12 7 S 1019,3 12 0,0
20.10.2018 03:00:00 14,9 13,3 14,2 6 4 10 6 SSE 1019,5 12 0,0
20.10.2018 02:00:00 15,8 13,1 14,6 4 2 15 8 S 1019,3 19 0,0
20.10.2018 01:00:00 16,0 14,4 14,6 11 6 13 7 S 1019,2 17 0,0
20.10.2018 00:00:00 16,2 14,2 15,3 3 2 13 7 SSE 1018,8 10 0,0
19.10.2018 23:00:00 17,4 15,0 16,0 9 5 13 7 S 1018,6 15 0,0
19.10.2018 22:00:00 17,6 15,2 16,2 6 3 14 8 SSW 1018,3 13 0,0
19.10.2018 21:00:00 17,9 15,2 16,7 4 2 13 7 S 1017,9 16 0,0
19.10.2018 20:00:00 18,7 16,1 17,7 4 2 11 6 SW 1017,2 11 0,0
19.10.2018 19:00:00 19,9 16,9 18,8 6 3 8 5 S 1016,6 8 0,0
19.10.2018 18:00:00 22,3 16,8 22,3 6 3 10 6 SSE 1015,8 9 0,0
19.10.2018 17:00:00 23,0 17,2 25,5 6 4 17 9 NW 1015,4 20 0,0
19.10.2018 16:00:00 23,3 16,3 26,7 9 5 20 11 NNW 1015,6 20 0,0
19.10.2018 15:00:00 23,5 17,5 25,1 11 6 23 12 NNW 1015,5 12 0,0
19.10.2018 14:00:00 24,1 18,1 25,3 10 5 21 12 NW 1015,5 20 0,0
19.10.2018 13:00:00 24,2 17,2 27,7 7 4 20 11 NW 1015,7 36 0,0
19.10.2018 12:00:00 23,4 16,2 26,8 9 5 17 9 NNW 1015,6 52 0,0
19.10.2018 11:00:00 22,8 15,9 21,6 8 4 12 6 N 1015,4 57 0,0
19.10.2018 10:00:00 20,8 14,7 17,4 4 2 9 5 SSE 1015,4 49 0,0
19.10.2018 09:00:00 16,9 14,5 13,6 5 3 11 6 S 1015,0 33 0,0
19.10.2018 08:00:00 14,4 12,4 13,4 4 2 14 8 SSW 1014,3 9 0,0
19.10.2018 07:00:00 14,5 12,2 13,4 8 5 16 8 S 1014,0 17 0,0
19.10.2018 06:00:00 14,5 12,4 13,8 6 3 10 6 S 1013,9 22 0,0
19.10.2018 05:00:00 15,0 12,5 14,1 5 3 14 8 SSE 1013,9 30 0,0
19.10.2018 04:00:00 16,0 12,9 14,3 9 5 14 8 S 1013,7 44 0,0
19.10.2018 03:00:00 15,4 12,9 14,5 9 5 13 7 S 1013,8 40 0,0
19.10.2018 02:00:00 15,5 13,2 14,7 6 3 13 7 SSW 1013,6 36 0,0
19.10.2018 01:00:00 16,0 13,1 15,1 5 3 17 9 SE 1013,5 49 0,0
19.10.2018 00:00:00 16,2 13,5 15,2 10 5 14 8 SSW 1013,5 38 0,0
18.10.2018 23:00:00 16,3 13,6 15,2 9 5 13 7 SSW 1012,8 34 0,0
18.10.2018 22:00:00 16,8 13,9 16,0 7 4 14 7 SW 1012,0 17 0,0
18.10.2018 21:00:00 17,7 14,2 16,6 6 4 14 8 S 1011,4 60 0,0
18.10.2018 20:00:00 18,3 14,4 17,6 9 5 15 8 SW 1011,0 57 0,0
18.10.2018 19:00:00 20,1 15,1 19,1 8 4 11 6 SSW 1010,1 42 0,0
18.10.2018 18:00:00 23,3 16,3 22,9 7 4 12 7 SSW 1009,7 28 0,0
18.10.2018 17:00:00 26,2 15,9 28,8 5 3 8 5 N 1009,6 42 0,0
18.10.2018 16:00:00 27,0 15,1 29,9 3 2 12 7 W 1009,8 20 0,0
18.10.2018 15:00:00 25,6 14,7 26,1 4 2 9 5 NNW 1010,1 20 0,0
18.10.2018 14:00:00 24,6 16,8 26,1 7 4 12 6 N 1010,8 52 0,0
18.10.2018 13:00:00 23,9 15,7 24,7 2 1 6 3 ENE 1011,5 60 0,0
18.10.2018 12:00:00 23,1 14,6 24,8 4 2 11 6 ESE 1011,6 19 0,0
18.10.2018 11:00:00 22,2 15,3 20,0 2 1 6 3 S 1011,7 56 0,0
18.10.2018 10:00:00 19,4 16,1 17,9 0 0 10 6 N 1011,7 60 0,0
18.10.2018 09:00:00 17,5 14,6 14,6 9 5 16 8 S 1011,6 60 0,0
18.10.2018 08:00:00 14,8 13,2 13,9 8 5 10 5 S 1011,3 60 0,0
18.10.2018 07:00:00 15,4 13,4 14,6 5 3 16 9 SW 1011,3 60 0,0
18.10.2018 06:00:00 15,1 13,3 14,4 9 5 16 8 S 1011,2 60 0,0
18.10.2018 05:00:00 14,8 13,7 14,2 11 6 13 7 S 1011,3 54 0,0
18.10.2018 04:00:00 15,1 13,8 14,4 6 4 13 7 S 1011,7 60 0,0
18.10.2018 03:00:00 15,5 14,2 15,0 4 2 14 8 S 1012,4 60 0,0
18.10.2018 02:00:00 16,0 14,9 15,3 9 5 12 6 S 1012,9 49 0,0
18.10.2018 01:00:00 16,4 15,1 15,8 5 3 12 6 S 1013,2 56 0,0
18.10.2018 00:00:00 16,5 15,4 16,1 5 3 15 8 S 1013,3 55 0,0
17.10.2018 23:00:00 17,3 15,8 16,7 4 2 13 7 SSE 1013,4 52 0,0
17.10.2018 22:00:00 18,0 16,5 17,6 5 3 13 7 SSW 1013,1 53 0,0
17.10.2018 21:00:00 18,3 16,8 18,0 5 3 12 6 WSW 1012,9 39 0,0
17.10.2018 20:00:00 18,8 16,9 18,5 8 4 15 8 SSW 1013,0 38 0,2
17.10.2018 19:00:00 20,0 18,7 19,4 6 3 8 4 S 1012,8 44 0,0
17.10.2018 18:00:00 20,8 18,7 20,7 0 0 5 3 N 1012,5 20 0,0
17.10.2018 17:00:00 21,0 18,4 21,3 0 0 9 5 N 1012,7 42 0,2
17.10.2018 16:00:00 21,3 18,1 21,6 2 1 9 5 NE 1012,8 55 0,0
17.10.2018 15:00:00 21,3 18,3 21,8 6 3 10 5 N 1012,7 49 0,0
17.10.2018 14:00:00 21,1 16,7 21,8 3 1 7 4 NNW 1012,8 35 0,6
17.10.2018 13:00:00 20,1 18,2 20,5 3 2 7 4 SE 1013,6 20 0,0
17.10.2018 12:00:00 19,3 17,3 19,1 0 0 12 7 N 1013,8 60 0,0
17.10.2018 11:00:00 18,6 17,3 17,0 10 5 13 7 SSE 1013,6 53 0,0
17.10.2018 10:00:00 17,2 16,2 16,3 5 3 14 8 WSW 1013,8 19 0,8
17.10.2018 09:00:00 17,0 15,5 15,9 11 6 19 10 S 1013,6 18 2,0
17.10.2018 08:00:00 16,4 15,4 15,6 3 1 15 8 SE 1014,1 7 1,0
17.10.2018 07:00:00 16,0 15,0 14,8 10 5 14 7 S 1014,0 37 0,0
17.10.2018 06:00:00 15,5 14,2 14,6 4 2 15 8 SW 1014,3 39 0,0
17.10.2018 05:00:00 14,8 14,0 14,1 11 6 14 8 S 1014,5 39 0,0
17.10.2018 04:00:00 14,6 13,8 14,1 6 3 12 7 SSW 1015,2 22 0,0
17.10.2018 03:00:00 14,4 13,6 13,6 8 5 11 6 SSE 1015,5 26 0,2
17.10.2018 02:00:00 15,2 14,4 14,3 3 1 11 6 SW 1015,7 29 0,0
17.10.2018 01:00:00 15,1 14,3 14,5 6 3 11 6 SSW 1015,7 23 0,0
17.10.2018 00:00:00 15,6 14,8 14,8 8 4 11 6 SSW 1016,1 14 0,0
16.10.2018 23:00:00 16,1 15,1 15,4 9 5 15 8 SSW 1016,5 19 0,0
16.10.2018 22:00:00 16,6 15,8 16,0 10 6 14 8 SSE 1016,4 20 0,0
16.10.2018 21:00:00 17,2 16,2 16,6 8 4 13 7 S 1016,3 16 0,0
16.10.2018 20:00:00 17,9 16,8 17,3 4 2 7 4 S 1015,9 6 0,0
16.10.2018 19:00:00 19,1 17,9 18,7 5 3 10 5 SSE 1015,5 14 0,0
16.10.2018 18:00:00 19,4 18,1 19,2 4 2 12 6 S 1015,4 20 0,0
16.10.2018 17:00:00 19,5 18,5 18,5 9 5 24 13 N 1015,3 8 1,4
16.10.2018 16:00:00 19,3 17,6 18,8 14 7 24 13 N 1015,6 6 0,4

tt = Température de l'air
td = dewpoint
tt 5cm = Température de l'air 5cm
ff = Vitesse du vent
fx = gusts
dd = Direction du vent
ppp = reduced air pressure
vv = visibility
rr = Quantités de précipitations

stations d'obs. à proximité